Location: Kernascl�den
(48.0062°N, 3.3198°W)
Time: 11:39:01
(UTC+00:00)

COSMO-SKYMED 1 - Pass Details

Date: 21 January 2021
Orbit: 621 x 623 km, 97.9° (Epoch: 07 March)

Event Time Altitude Azimuth Distance (km) Brightness Sun altitude
Exits shadow 18:13:02 - 15° (NNE) 2,971 5.8 -12.6°
Rises 18:13:10 0° 16° (NNE) 2,918 5.7 -12.7°
Reaches altitude 10° 18:15:23 10° 19° (NNE) 2,006 4.9 -13.0°
Maximum altitude 18:19:43 65° 101° (E) 689 2.5 -13.7°
Drops below altitude 10° 18:24:01 10° 184° (S) 1,988 5.4 -14.4°
Sets 18:26:13 0° 187° (S) 2,889 6.3 -14.8°
